SL-16 DEB, 18550

Orbit data source: Space-Track

SL-16 DEB, 18550 is space debris in LEO originally from a launch on Wed, 18 Mar 1987 UTC launched from the Tyuratam Missile And Space Complex (TTMTR). Debris objects in space refer to the collection of defunct objects orbiting the Earth. Examples of debris include non-operational satellites, rocket bodies, and fragments generated from explosions, collisions, or faulty payload assembly.

Loading next visibility...
Identifier
18550, 1987-027F
Orbit
LEO
Country
Flag of CISCIS
Related business
Manufacturer
Yuzhnoe
Mission
Spacecraft
Bus & Motor
SEP MOTOR COVER, Unknown motor
Mass
~0 kg wet, ~1 kg dry
Launch date (UTC)
1987-03-18 (39 years ago)
Launch vehicle
Unknown
Launch site
Tyuratam Missile And Space Complex (TTMTR)
Object type
Payload
Rocket body
Debris
Shape & HBR
Unknown shape, 0.1 m
Radar Cross Section
Small (<0.1 m²)

Expand to show TLE details & history
Last TLE update: 15 hours ago

TLE from 15 hours ago
0 SL-16 DEB
1 18550U 87027F   25349.94079970  .00000109  00000-0  13155-3 0  9999
2 18550  71.0224 170.2562 0182208 340.9258  18.5079 13.79230047948717
Epoch: 2025-12-15T22:34Z
TLE epoch observation values (Epoch: 2025-12-15T22:34:45.094Z)
Latitude
-0.00003°
Longitude
106.73615°
Altitude
842.31 km
Speed
7.496 km/s
True Right ascension
11h 21m 01s
True Declination
0° 00' 00"
Sunlit
Object was in daylight at epoch
Visualization orbit readout
Latitude
Unknown
Longitude
Unknown
Altitude
Unknown
Speed
Unknown
Apparent Right ascension
Unknown
Apparent Declination
Unknown
Sunlit
N/A
Visualization observer readout
Local Sidereal Time
12:39:33
Azimuth
Unknown
Elevation
Unknown
Doppler factor
Unknown
Orbital elements
Apogee altitude
1,098.366 km
Perigee altitude
830.786 km
Semi-major axis
7,342.713 km
Eccentricity
0.01822
Inclination
71.0224°
RAAN
170.2562°
Arg. of periapsis
340.9258°
True anomaly
19.18529°
Mean anomaly
18.5079°
Eccentric anomaly
18.84512°
Mean motion
3.44952 °/min
Orbital period
104.36 mins
BSTAR
0.00013155
Loading maneuver chart data...
Computing Atmospheric mass density...
Loading historical data...
Loading historical data...
Loading historical data...
Loading historical data...
Loading historical data...
Loading historical data...
Loading historical data...

Documentation

Showing up to 5 results
|